Location: Joplin, MO
(37.0842°N, 94.5133°W)
Time: 19:13:03
(UTC+02:00)

Courier 1B Rocket - Pass Details

Date: 04 April 2023
Orbit: 920 x 1202 km, 28.2° (Epoch: 08 June)

Event Time Altitude Azimuth Distance (km) Brightness Sun altitude
Rises 05:07:00 0° 265° (W) 3,962 8.9 -27.8°
Reaches altitude 10° 05:10:25 10° 252° (WSW) 2,954 8.0 -28.4°
Enters shadow 05:15:48 24° 204° (SSW) 2,018 6.5 -29.3°
Maximum altitude 05:15:59 24° 202° (SSW) 2,015 - -29.3°
Drops below altitude 10° 05:21:16 10° 150° (SSE) 2,784 - -30.2°
Sets 05:24:23 0° 137° (SE) 3,686 - -30.7°
